• Em Portugal
  • Lista de países
  • Para 7 dias
  • Temperatura da água
  • Mapas de satélite
  • Mapa do tempo
  • Widgets de tempo
  • user-avatar
    Iniciar Sessão

    Previsão horária em Pernik

    Hoje, 20 Setembro, Quinta-feira

    Tempo Temperatura Precipitação Vento Pressão Humidade
    00:00 +13°C° 0 mm 1 m/s 695 mmHg 63%
    01:00 +13°C° 0 mm 1 m/s 695 mmHg 64%
    02:00 +13°C° 0 mm 1 m/s 695 mmHg 69%
    03:00 +12°C° 0 mm 1 m/s 694 mmHg 69%
    04:00 +12°C° 0 mm 1 m/s 694 mmHg 70%
    05:00 +12°C° 0 mm 1 m/s 694 mmHg 71%
    06:00 +13°C° 0 mm 1 m/s 695 mmHg 65%
    07:00 +15°C° 0 mm 1 m/s 695 mmHg 60%
    08:00 +16°C° 0 mm 1 m/s 695 mmHg 55%
    09:00 +20°C° 0 mm 1 m/s 696 mmHg 47%
    10:00 +21°C° 0 mm 2 m/s 696 mmHg 39%
    11:00 +24°C° 0 mm 2 m/s 696 mmHg 31%
    12:00 +25°C° 0 mm 2 m/s 696 mmHg 29%
    13:00 +26°C° 0 mm 2 m/s 696 mmHg 26%
    14:00 +27°C° 0 mm 2 m/s 696 mmHg 24%
    15:00 +26°C° 0 mm 2 m/s 695 mmHg 25%
    16:00 +26°C° 0 mm 2 m/s 695 mmHg 27%
    17:00 +25°C° 0 mm 2 m/s 694 mmHg 29%
    18:00 +21°C° 0 mm 2 m/s 694 mmHg 35%
    19:00 +18°C° 0 mm 2 m/s 694 mmHg 41%
    20:00 +16°C° 0 mm 1 m/s 693 mmHg 48%
    21:00 +15°C° 0 mm 1 m/s 694 mmHg 49%
    22:00 +14°C° 0 mm 1 m/s 694 mmHg 50%
    23:00 +14°C° 0 mm 1 m/s 694 mmHg 51%

    Amanhã, 21 Setembro, Sexta-feira

    Tempo Temperatura Precipitação Vento Pressão Humidade
    00:00 +13°C° 0 mm 1 m/s 694 mmHg 51%
    01:00 +13°C° 0 mm 1 m/s 693 mmHg 52%
    02:00 +13°C° 0 mm 1 m/s 693 mmHg 53%
    03:00 +12°C° 0 mm 1 m/s 693 mmHg 53%
    04:00 +12°C° 0 mm 1 m/s 693 mmHg 53%
    05:00 +12°C° 0 mm 1 m/s 693 mmHg 54%
    06:00 +13°C° 0 mm 1 m/s 693 mmHg 50%
    07:00 +15°C° 0 mm 1 m/s 694 mmHg 46%
    08:00 +16°C° 0 mm 1 m/s 694 mmHg 43%
    09:00 +20°C° 0 mm 1 m/s 695 mmHg 38%
    10:00 +22°C° 0 mm 1 m/s 695 mmHg 33%
    11:00 +24°C° 0 mm 1 m/s 695 mmHg 28%
    12:00 +25°C° 0 mm 1 m/s 695 mmHg 27%
    13:00 +26°C° 0 mm 1 m/s 695 mmHg 25%
    14:00 +27°C° 0 mm 1 m/s 695 mmHg 24%
    15:00 +26°C° 0 mm 1 m/s 694 mmHg 26%
    16:00 +26°C° 0 mm 1 m/s 694 mmHg 28%
    17:00 +25°C° 0 mm 1 m/s 693 mmHg 30%
    18:00 +23°C° 0 mm 1 m/s 693 mmHg 34%
    19:00 +21°C° 0 mm 1 m/s 693 mmHg 38%
    20:00 +19°C° 0 mm 1 m/s 693 mmHg 43%
    21:00 +18°C° 0 mm 1 m/s 693 mmHg 45%
    22:00 +16°C° 0 mm 1 m/s 693 mmHg 47%
    23:00 +15°C° 0 mm 1 m/s 693 mmHg 50%

    Depois de amanhã, 22 Setembro, Sábado

    Tempo Temperatura Precipitação Vento Pressão Humidade
    00:00 +15°C° 0 mm 1 m/s 693 mmHg 51%
    01:00 +15°C° 0 mm 1 m/s 693 mmHg 51%
    02:00 +14°C° 0 mm 1 m/s 693 mmHg 52%
    03:00 +14°C° 0 mm 1 m/s 693 mmHg 53%
    04:00 +14°C° 0 mm 1 m/s 693 mmHg 54%
    05:00 +13°C° 0 mm 1 m/s 693 mmHg 55%
    06:00 +15°C° 0 mm 1 m/s 693 mmHg 52%
    07:00 +18°C° 0 mm 1 m/s 693 mmHg 48%
    08:00 +17°C° 0 mm 0 m/s 694 mmHg 45%
    09:00 +20°C° 0 mm 0 m/s 694 mmHg 39%
    10:00 +23°C° 0 mm 0 m/s 695 mmHg 34%
    11:00 +25°C° 0 mm 0 m/s 695 mmHg 28%
    12:00 +28°C° 0 mm 1 m/s 695 mmHg 27%
    13:00 +29°C° 0 mm 1 m/s 695 mmHg 26%
    14:00 +29°C° 0 mm 1 m/s 695 mmHg 25%
    15:00 +29°C° 0 mm 1 m/s 694 mmHg 27%
    16:00 +28°C° 0 mm 1 m/s 694 mmHg 29%
    17:00 +27°C° 0 mm 1 m/s 694 mmHg 31%
    18:00 +25°C° 0 mm 1 m/s 694 mmHg 38%
    19:00 +22°C° 0 mm 1 m/s 694 mmHg 44%
    20:00 +19°C° 0 mm 1 m/s 694 mmHg 51%
    21:00 +19°C° 0 mm 1 m/s 694 mmHg 56%
    22:00 +18°C° 0 mm 1 m/s 695 mmHg 62%
    23:00 +16°C° 0 mm 1 m/s 695 mmHg 67%

    23 Setembro, Domingo

    Tempo Temperatura Precipitação Vento Pressão Humidade
    00:00 +16°C° 0 mm 1 m/s 695 mmHg 72%
    01:00 +15°C° 0 mm 1 m/s 695 mmHg 76%
    02:00 +15°C° 0 mm 1 m/s 695 mmHg 81%
    03:00 +14°C° 0 mm 1 m/s 695 mmHg 82%
    04:00 +14°C° 0 mm 1 m/s 695 mmHg 83%
    05:00 +14°C° 0 mm 1 m/s 695 mmHg 84%
    06:00 +15°C° 0 mm 1 m/s 696 mmHg 78%
    07:00 +16°C° 0 mm 1 m/s 696 mmHg 72%
    08:00 +18°C° 0 mm 1 m/s 696 mmHg 66%
    09:00 +20°C° 0 mm 1 m/s 697 mmHg 57%
    10:00 +23°C° 0 mm 1 m/s 697 mmHg 49%
    11:00 +25°C° 0 mm 1 m/s 698 mmHg 41%
    12:00 +26°C° 0 mm 1 m/s 698 mmHg 38%
    13:00 +27°C° 0 mm 1 m/s 697 mmHg 36%
    14:00 +28°C° 0 mm 1 m/s 697 mmHg 33%
    15:00 +28°C° 0 mm 1 m/s 696 mmHg 35%
    16:00 +27°C° 0 mm 1 m/s 696 mmHg 36%
    17:00 +27°C° 0 mm 1 m/s 696 mmHg 37%
    18:00 +24°C° 0 mm 1 m/s 695 mmHg 43%
    19:00 +22°C° 0 mm 1 m/s 695 mmHg 50%
    20:00 +19°C° 0 mm 1 m/s 695 mmHg 56%
    21:00 +19°C° 0 mm 1 m/s 695 mmHg 58%
    22:00 +19°C° 0 mm 1 m/s 695 mmHg 59%
    23:00 +18°C° 0 mm 1 m/s 694 mmHg 60%

    24 Setembro, Segunda-feira

    Tempo Temperatura Precipitação Vento Pressão Humidade
    00:00 +18°C° 0 mm 1 m/s 694 mmHg 62%
    01:00 +17°C° 0 mm 2 m/s 694 mmHg 63%
    02:00 +16°C° 0 mm 2 m/s 693 mmHg 64%
    03:00 +16°C° 0 mm 2 m/s 693 mmHg 65%
    04:00 +16°C° 0 mm 2 m/s 692 mmHg 66%
    05:00 +15°C° 0 mm 2 m/s 692 mmHg 67%
    06:00 +17°C° 0 mm 2 m/s 692 mmHg 63%
    07:00 +18°C° 0 mm 2 m/s 692 mmHg 58%
    08:00 +19°C° 0 mm 2 m/s 692 mmHg 54%
    09:00 +23°C° 0 mm 2 m/s 693 mmHg 47%
    10:00 +25°C° 0 mm 2 m/s 693 mmHg 40%
    11:00 +28°C° 0 mm 3 m/s 693 mmHg 32%
    12:00 +29°C° 0 mm 3 m/s 693 mmHg 30%
    13:00 +29°C° 0 mm 3 m/s 693 mmHg 28%
    14:00 +30°C° 0 mm 4 m/s 693 mmHg 27%
    15:00 +28°C° 0 mm 4 m/s 693 mmHg 33%
    16:00 +25°C° 0 mm 5 m/s 693 mmHg 40%
    17:00 +22°C° 0 mm 6 m/s 693 mmHg 47%
    18:00 +19°C° 0 mm 5 m/s 694 mmHg 53%
    19:00 +15°C° 0 mm 4 m/s 694 mmHg 59%
    20:00 +13°C° 0 mm 3 m/s 695 mmHg 65%
    21:00 +12°C° 0 mm 3 m/s 695 mmHg 67%
    22:00 +12°C° 0 mm 2 m/s 695 mmHg 68%
    23:00 +10°C° 0 mm 2 m/s 696 mmHg 70%

    25 Setembro, Terça-feira

    Tempo Temperatura Precipitação Vento Pressão Humidade
    00:00 +10°C° 0 mm 2 m/s 696 mmHg 69%
    01:00 +10°C° 0 mm 2 m/s 696 mmHg 68%
    02:00 +9°C° 0 mm 2 m/s 696 mmHg 67%
    03:00 +9°C° 0 mm 2 m/s 696 mmHg 67%
    04:00 +9°C° 0 mm 2 m/s 696 mmHg 66%
    05:00 +9°C° 0 mm 2 m/s 696 mmHg 65%
    06:00 +9°C° 0 mm 2 m/s 696 mmHg 63%
    07:00 +10°C° 0 mm 2 m/s 697 mmHg 60%
    08:00 +10°C° 0 mm 2 m/s 697 mmHg 57%
    09:00 +10°C° 0 mm 2 m/s 697 mmHg 56%
    10:00 +11°C° 0 mm 3 m/s 697 mmHg 54%
    11:00 +11°C° 0 mm 3 m/s 697 mmHg 53%
    12:00 +11°C° 0.1 mm 3 m/s 697 mmHg 54%
    13:00 +10°C° 0.1 mm 3 m/s 697 mmHg 55%
    14:00 +10°C° 0.1 mm 3 m/s 697 mmHg 56%
    15:00 +9°C° 0.1 mm 3 m/s 697 mmHg 60%
    16:00 +9°C° 0.1 mm 3 m/s 697 mmHg 63%
    17:00 +8°C° 0.1 mm 3 m/s 696 mmHg 67%
    18:00 +8°C° 0.2 mm 2 m/s 697 mmHg 72%
    19:00 +7°C° 0.2 mm 2 m/s 697 mmHg 77%
    20:00 +6°C° 0.2 mm 2 m/s 697 mmHg 82%
    21:00 +6°C° 0 mm 1 m/s 697 mmHg 85%
    22:00 +6°C° 0 mm 1 m/s 697 mmHg 88%
    23:00 +5°C° 0 mm 1 m/s 697 mmHg 90%
    Mostrar mais